This is the latest recevied weather packets stored in our database for station/object DH8TOM-3. If no packets are shown the sender has not sent any weather packets the latest 1 day(s).
| Time | Temp. | Humidity | Pressure | Rain* | Wind** | Luminosity | Snow |
|---|---|---|---|---|---|---|---|
| 1778063515 | 18.89° C | 70% | 1004.5 hPa | 0 mm | - | - | - |
| 1778062914 | 18.33° C | 70% | 1004.4 hPa | 0 mm | - | - | - |
| 1778062612 | 18.33° C | 70% | 1004.4 hPa | 0 mm | - | - | - |
| 1778062311 | 18.33° C | 71% | 1004.3 hPa | 0 mm | - | - | - |
| 1778061710 | 18.33° C | 72% | 1004.2 hPa | 0 mm | - | - | - |
| 1778061408 | 18.33° C | 72% | 1004.2 hPa | 0 mm | - | - | - |
| 1778061107 | 17.78° C | 73% | 1004.3 hPa | 0 mm | - | - | - |
| 1778060204 | 17.78° C | 72% | 1004.3 hPa | 0 mm | - | - | - |
| 1778059903 | 17.78° C | 71% | 1004.2 hPa | 0 mm | - | - | - |
| 1778059602 | 17.78° C | 71% | 1004.2 hPa | 0 mm | - | - | - |
| 1778059301 | 18.33° C | 71% | 1004 hPa | 0 mm | - | - | - |
| 1778059000 | 18.33° C | 71% | 1004 hPa | 0 mm | - | - | - |
| 1778058399 | 18.33° C | 74% | 1004 hPa | 0 mm | - | - | - |
| 1778057797 | 17.22° C | 77% | 1003.9 hPa | 0 mm | - | - | - |
| 1778056893 | 16.67° C | 78% | 1004 hPa | 0 mm | - | - | - |
| 1778056592 | 16.67° C | 78% | 1004 hPa | 0 mm | - | - | - |
| 1778056291 | 16.11° C | 78% | 1003.9 hPa | 0 mm | - | - | - |
| 1778055097 | 16.11° C | 79% | 1003.7 hPa | 0 mm | - | - | - |
| 1778054786 | 16.11° C | 79% | 1003.7 hPa | 0 mm | - | - | - |
| 1778054486 | 16.11° C | 80% | 1003.6 hPa | 0 mm | - | - | - |
| 1778053883 | 16.11° C | 80% | 1003.6 hPa | 0 mm | - | - | - |
| 1778053582 | 16.11° C | 80% | 1003.6 hPa | 0 mm | - | - | - |
| 1778053282 | 15.56° C | 82% | 1003.6 hPa | 0 mm | - | - | - |
| 1778052980 | 15.56° C | 82% | 1003.6 hPa | 0 mm | - | - | - |
| 1778052378 | 15.56° C | 82% | 1003.5 hPa | 0 mm | - | - | - |
* Rain latest hour (hover to see other rain measurements)
** Current wind speed in m/s (hover to see current wind gust speed)